Location: Poprad
(49.0500°N, 20.3000°E)
Time: 00:39:54
(UTC+02:00)

RS-15 - Visible Passes

Search period start: 24 April 2024 00:00
Search period end: 04 May 2024 00:00
Orbit: 1895 x 2149 km, 64.8° (Epoch: 22 April)

Date Brightness Start Highest point End Pass type
(mag) Time Alt. Az. Time Alt. Az. Time Alt. Az.
24 Apr 9.3 00:30:37 10° WNW 00:41:09 37° N 00:51:17 10° ENE visible
24 Apr 9.0 02:46:13 10° NW 02:56:59 44° NNE 03:07:20 10° E visible
24 Apr 8.3 21:37:55 10° SW 21:49:51 74° NW 22:01:16 10° NE visible
24 Apr 9.2 23:53:42 10° W 00:04:25 39° NNW 00:14:43 10° NE visible
25 Apr 9.2 02:09:46 10° NW 02:20:21 40° NNE 02:30:32 10° E visible
25 Apr 8.1 04:23:16 10° NW 04:34:34 81° NE 04:45:30 10° SE visible
25 Apr 8.1 21:01:41 10° SW 21:13:41 86° NW 21:25:10 10° NE visible
25 Apr 9.1 23:16:46 10° W 23:27:44 42° NNW 23:38:16 10° NE visible
26 Apr 9.3 01:33:12 10° NW 01:43:39 38° NNE 01:53:41 10° ENE visible
26 Apr 8.3 03:47:07 10° NW 03:58:22 69° NE 04:09:14 10° SE visible
26 Apr 8.1 20:25:40 10° SSW 20:37:37 80° SE 20:49:02 10° NE visible
26 Apr 9.0 22:39:54 10° W 22:51:08 47° NNW 23:01:55 10° NE visible
27 Apr 9.3 00:56:31 10° WNW 01:06:54 36° N 01:16:52 10° ENE visible
27 Apr 8.6 03:10:55 10° NW 03:22:04 59° NE 03:32:49 10° ESE visible
27 Apr 8.8 22:03:07 10° WSW 22:14:38 54° NW 22:25:41 10° NE visible
28 Apr 9.3 00:19:43 10° WNW 00:30:06 36° N 00:40:07 10° ENE visible
28 Apr 8.8 02:34:40 10° NW 02:45:39 51° NNE 02:56:14 10° ESE visible
28 Apr 8.0 04:47:38 10° NW 04:58:39 69° WSW 05:09:23 10° SSE visible
28 Apr 8.6 21:26:30 10° WSW 21:38:14 62° NW 21:49:28 10° NE visible
28 Apr 9.3 23:42:50 10° WNW 23:53:20 37° N 00:03:25 10° ENE visible
29 Apr 9.0 01:58:21 10° NW 02:09:07 45° NNE 02:19:30 10° E visible
29 Apr 7.9 04:11:29 10° NW 04:22:42 83° SW 04:33:35 10° SSE visible
29 Apr 8.4 20:50:02 10° SW 21:01:57 72° NW 21:13:20 10° NE visible
29 Apr 9.3 23:05:54 10° W 23:16:34 39° NNW 23:26:51 10° NE visible
30 Apr 9.1 01:21:55 10° NW 01:32:30 41° NNE 01:42:42 10° E visible
30 Apr 8.1 03:35:21 10° NW 03:46:39 83° NE 03:57:34 10° SE visible
30 Apr 8.3 20:13:46 10° SW 20:25:46 84° NW 20:37:13 10° NE visible
30 Apr 9.2 22:28:58 10° W 22:39:53 42° NNW 22:50:23 10° NE visible
01 May 9.2 00:45:21 10° NW 00:55:49 38° NNE 01:05:52 10° E visible
01 May 8.2 02:59:12 10° NW 03:10:28 70° NE 03:21:21 10° SE visible
01 May 9.1 21:52:05 10° W 22:03:17 46° NNW 22:14:01 10° NE visible
02 May 9.3 00:08:42 10° WNW 00:19:03 36° N 00:29:02 10° ENE visible
02 May 8.5 02:23:01 10° NW 02:34:11 60° NE 02:44:57 10° ESE visible
02 May 8.0 04:35:54 10° NW 04:46:31 54° WSW 04:56:53 10° S visible
02 May 8.9 21:15:18 10° WSW 21:26:46 53° NNW 21:37:45 10° NE visible
02 May 9.4 23:31:55 10° WNW 23:42:16 36° N 23:52:16 10° ENE visible
03 May 8.7 01:46:47 10° NW 01:57:46 52° NNE 02:08:22 10° ESE visible
03 May 7.9 03:59:43 10° NW 04:10:41 67° WSW 04:21:24 10° SSE visible
03 May 8.7 20:38:38 10° WSW 20:50:21 61° NW 21:01:34 10° NE visible
03 May 9.4 22:55:02 10° WNW 23:05:30 37° N 23:15:34 10° ENE visible
